DW8947 Weather Reports


Display with metric or nautical units.
time (UTC)temp
F
wind
direction
speed
MPH
gust
MPH
rain 1hr
in
rain 24hr
in
rain mn
in
humidity
%
barometer
mb
20260505002704 74 4 0.0 1.0 0.00 0.00 0.00 52 1007.5
20260505002204 74 4 0.0 2.0 0.00 0.00 0.00 52 1007.5
20260504235704 74 171 0.0 2.0 0.00 0.00 0.00 49 1007.5
20260504235204 74 158 0.0 2.0 0.00 0.00 0.00 49 1007.5
20260504234704 74 12 1.0 2.0 0.00 0.00 0.00 51 1007.5
20260504234204 75 162 0.0 2.0 0.00 0.00 0.00 50 1007.5
20260504233705 75 162 0.0 2.0 0.00 0.00 0.00 48 1007.5
20260504232703 76 212 0.0 2.0 0.00 0.00 0.00 49 1007.5
20260504231704 77 203 0.0 2.0 0.00 0.00 0.00 47 1007.5
20260504230704 77 180 0.0 2.0 0.00 0.00 0.00 48 1007.6
20260504230204 77 210 1.0 2.0 0.00 0.00 0.00 47 1007.6
20260504225704 76 158 0.0 2.0 0.00 0.00 0.00 47 1007.7
20260504225204 77 158 1.0 2.0 0.00 0.00 0.00 50 1007.7
20260504224204 76 225 0.0 2.0 0.00 0.00 0.00 49 1007.8
20260504223204 76 168 1.0 2.0 0.00 0.00 0.00 49 1007.9
20260504222203 76 181 1.0 2.0 0.00 0.00 0.00 51 1007.9
20260504221204 76 172 0.0 2.0 0.00 0.00 0.00 50 1008.1
20260504220204 76 185 0.0 2.0 0.00 0.00 0.00 52 1008.2
20260504215204 75 174 1.0 2.0 0.00 0.00 0.00 53 1008.3
20260504212204 75 190 0.0 2.0 0.00 0.00 0.00 53 1008.6
20260504205704 75 181 1.0 2.0 0.00 0.00 0.00 52 1008.6
20260504205204 75 209 0.0 2.0 0.00 0.00 0.00 53 1008.7
20260504204204 75 170 1.0 2.0 0.00 0.00 0.00 53 1008.7
20260504202704 75 176 0.0 2.0 0.00 0.00 0.00 52 1008.7
20260504200704 75 34 0.0 2.0 0.00 0.00 0.00 51 1008.8
20260504195204 74 241 0.0 2.0 0.00 0.00 0.00 49 1008.8
20260504194705 73 236 1.0 2.0 0.00 0.00 0.00 51 1008.7
20260504194204 73 285 1.0 2.0 0.00 0.00 0.00 50 1008.7
20260504193204 73 238 1.0 1.0 0.00 0.00 0.00 51 1008.8
20260504192704 72 219 0.0 2.0 0.00 0.00 0.00 54 1008.8
20260504192204 71 214 1.0 2.0 0.00 0.00 0.00 54 1008.9
20260504191204 70 227 1.0 2.0 0.00 0.00 0.00 55 1009.0
20260504190703 69 104 1.0 2.0 0.00 0.00 0.00 56 1009.1
20260504185203 69 92 0.0 3.0 0.00 0.00 0.00 54 1009.2
20260504184204 70 102 0.0 1.0 0.00 0.00 0.00 56 1009.2
20260504183704 70 110 0.0 2.0 0.00 0.00 0.00 54 1009.2
20260504183204 69 39 0.0 2.0 0.00 0.00 0.00 55 1009.2
20260504182204 69 126 0.0 1.0 0.00 0.00 0.00 55 1009.2
20260504180704 68 126 0.0 2.0 0.00 0.00 0.00 58 1009.0
20260504180204 67 126 0.0 1.0 0.00 0.00 0.00 61 1009.1
20260504175704 67 126 0.0 1.0 0.00 0.00 0.00 60 1009.2
20260504175204 67 126 1.0 2.0 0.00 0.00 0.00 61 1009.1
20260504174703 66 126 1.0 2.0 0.00 0.00 0.00 60 1009.1
20260504174204 66 126 1.0 2.0 0.00 0.00 0.00 61 1009.1
20260504173204 65 126 0.0 1.0 0.00 0.00 0.00 65 1009.2
20260504170704 65 67 0.0 2.0 0.00 0.00 0.00 63 1009.1
20260504170203 64 67 0.0 2.0 0.00 0.00 0.00 63 1009.1
20260504150703 57 66 0.0 0.0 0.00 0.00 0.00 77 1008.6
20260504150204 57 66 0.0 0.0 0.00 0.00 0.00 77 1008.5
20260504140704 56 66 0.0 0.0 0.00 0.00 0.00 72 1008.2
20260504120204 60 67 0.0 0.0 0.00 0.00 0.00 67 1007.5
20260504100204 61 67 0.0 0.0 0.00 0.00 0.00 60 1007.4
20260504081704 62 66 0.0 0.0 0.00 0.00 0.00 50 1007.3
20260504081203 62 66 0.0 0.0 0.00 0.00 0.00 51 1007.3
20260504080704 63 66 0.0 0.0 0.00 0.00 0.00 51 1007.3
20260504070204 66 100 0.0 2.0 0.00 0.00 0.00 46 1007.4
20260504060203 68 75 0.0 2.0 0.00 0.00 0.00 44 1007.3
20260504050703 68 98 0.0 1.0 0.00 0.00 0.00 45 1007.4
20260504045704 68 170 1.0 2.0 0.00 0.00 0.00 47 1007.4
20260504045204 68 48 0.0 2.0 0.00 0.00 0.00 45 1007.4
20260504044704 68 48 0.0 2.0 0.00 0.00 0.00 46 1007.4
20260504043704 68 6 0.0 2.0 0.00 0.00 0.00 46 1007.5
20260504042704 68 34 0.0 2.0 0.00 0.00 0.00 48 1007.4
20260504042204 68 34 0.0 2.0 0.00 0.00 0.00 45 1007.5
20260504041204 69 73 0.0 2.0 0.00 0.00 0.00 46 1007.4
20260504040703 69 94 1.0 2.0 0.00 0.00 0.00 44 1007.3
20260504035204 69 96 0.0 2.0 0.00 0.00 0.00 45 1007.2
20260504034204 69 58 0.0 1.0 0.00 0.00 0.00 47 1007.2
20260504032204 70 117 0.0 2.0 0.00 0.00 0.00 47 1007.2
20260504031704 71 129 0.0 2.0 0.00 0.00 0.00 47 1007.3
20260504031203 71 222 0.0 2.0 0.00 0.00 0.00 45 1007.3
20260504025204 72 96 0.0 1.0 0.00 0.00 0.00 45 1007.3
20260504023704 72 166 0.0 2.0 0.00 0.00 0.00 46 1007.2
20260504023204 72 70 1.0 2.0 0.00 0.00 0.00 45 1007.3
20260504022703 73 50 0.0 2.0 0.00 0.00 0.00 45 1007.3
20260504022203 73 50 0.0 1.0 0.00 0.00 0.00 44 1007.3
20260504021703 73 50 0.0 2.0 0.00 0.00 0.00 43 1007.4
20260504021204 74 134 0.0 2.0 0.00 0.00 0.00 41 1007.4
20260504020203 74 10 0.0 2.0 0.00 0.00 0.00 42 1007.4
20260504015203 75 344 1.0 3.0 0.00 0.00 0.00 36 1007.5
20260504014204 75 325 0.0 2.0 0.00 0.00 0.00 38 1007.6
20260504013204 76 311 1.0 2.0 0.00 0.00 0.00 35 1007.6
20260504012703 76 331 1.0 2.0 0.00 0.00 0.00 37 1007.6
20260504012204 76 336 1.0 3.0 0.00 0.00 0.00 38 1007.7
20260504011704 76 52 1.0 2.0 0.00 0.00 0.00 38 1007.8
20260504010704 77 337 1.0 2.0 0.00 0.00 0.00 42 1007.8
20260504010204 77 96 1.0 3.0 0.00 0.00 0.00 36 1007.9
20260504005203 77 82 1.0 3.0 0.00 0.00 0.00 39 1007.9
20260504004703 77 103 1.0 5.0 0.00 0.00 0.00 40 1008.0
20260504004203 77 39 1.0 3.0 0.00 0.00 0.00 37 1008.0
20260504003703 77 319 1.0 2.0 0.00 0.00 0.00 36 1008.1